GFSMA_prec_precacc24_114.txt.gz
Total_Precipitation_Accumulation
0.07 0.09 0.13 0.24 0.35 0.67 0.76 0.38 0.20 0.24 0.27 0.33 0.28 0.21 0.04 0.16 0.14 0.24 0.25 0.33 0.33 0.16 0.07 0.03 0.04 0.04 0.03 0.04 0.02 0.01 0.01 0.01 0.01 0.01 0.01 0.01 0.01 0.01 0.01 0.01 0.01 0.00 0.00
0.09 0.14 0.19 0.23 0.25 0.48 0.62 0.50 0.18 0.26 0.28 0.25 0.27 0.15 0.06 0.15 0.18 0.23 0.22 0.39 0.42 0.33 0.20 0.07 0.04 0.05 0.03 0.03 0.02 0.02 0.01 0.01 0.02 0.02 0.01 0.01 0.01 0.00 0.01 0.01 0.00 0.00 0.00
0.10 0.20 0.28 0.24 0.26 0.37 0.34 0.44 0.37 0.35 0.31 0.28 0.23 0.16 0.09 0.12 0.12 0.18 0.18 0.28 0.35 0.30 0.21 0.08 0.05 0.05 0.03 0.04 0.02 0.01 0.02 0.02 0.03 0.02 0.02 0.01 0.01 0.00 0.01 0.00 0.00 0.00 0.00
0.12 0.32 0.32 0.29 0.37 0.34 0.21 0.30 0.20 0.28 0.34 0.28 0.21 0.13 0.10 0.05 0.06 0.14 0.17 0.19 0.25 0.23 0.14 0.06 0.04 0.05 0.04 0.05 0.02 0.02 0.02 0.02 0.02 0.03 0.02 0.01 0.01 0.01 0.01 0.00 0.00 0.00 0.00
0.20 0.41 0.45 0.34 0.37 0.37 0.22 0.17 0.10 0.13 0.24 0.29 0.24 0.19 0.11 0.05 0.04 0.11 0.16 0.18 0.22 0.22 0.10 0.03 0.03 0.04 0.04 0.05 0.02 0.02 0.03 0.02 0.02 0.03 0.01 0.01 0.01 0.01 0.01 0.00 0.00 0.00 0.00
0.36 0.48 0.57 0.40 0.34 0.30 0.29 0.19 0.12 0.16 0.18 0.19 0.25 0.26 0.16 0.09 0.06 0.15 0.20 0.20 0.21 0.23 0.13 0.01 0.02 0.02 0.03 0.04 0.03 0.02 0.03 0.02 0.01 0.02 0.01 0.01 0.01 0.01 0.01 0.00 0.00 0.00 0.00
0.53 0.50 0.56 0.47 0.40 0.26 0.18 0.14 0.12 0.13 0.23 0.23 0.33 0.38 0.23 0.16 0.07 0.13 0.20 0.18 0.17 0.16 0.10 0.01 0.00 0.01 0.02 0.02 0.03 0.02 0.02 0.03 0.02 0.01 0.01 0.01 0.01 0.01 0.01 0.00 0.00 0.00 0.00
0.43 0.44 0.53 0.48 0.39 0.35 0.34 0.24 0.10 0.08 0.16 0.24 0.19 0.24 0.25 0.40 0.15 0.07 0.13 0.14 0.11 0.12 0.08 0.01 0.00 0.00 0.01 0.01 0.00 0.01 0.01 0.03 0.03 0.02 0.01 0.01 0.00 0.01 0.01 0.01 0.00 0.00 0.00
0.34 0.28 0.39 0.49 0.40 0.42 0.47 0.37 0.18 0.09 0.09 0.21 0.16 0.08 0.09 0.16 0.10 0.04 0.06 0.09 0.10 0.07 0.05 0.01 0.00 0.00 0.00 0.00 0.00 0.00 0.00 0.00 0.02 0.03 0.02 0.01 0.00 0.00 0.00 0.00 0.00 0.00 0.00
0.19 0.26 0.20 0.39 0.34 0.39 0.41 0.47 0.40 0.32 0.22 0.21 0.19 0.08 0.05 0.02 0.03 0.08 0.08 0.08 0.11 0.10 0.04 0.02 0.00 0.00 0.00 0.00 0.00 0.00 0.00 0.00 0.00 0.01 0.02 0.03 0.02 0.01 0.00 0.00 0.00 0.00 0.00
0.15 0.24 0.35 0.37 0.39 0.38 0.37 0.33 0.47 0.45 0.43 0.29 0.19 0.11 0.06 0.05 0.05 0.04 0.11 0.12 0.13 0.09 0.06 0.02 0.00 0.00 0.00 0.00 0.00 0.00 0.00 0.00 0.00 0.00 0.00 0.00 0.02 0.03 0.01 0.00 0.00 0.00 0.00
0.05 0.18 0.40 0.47 0.46 0.45 0.48 0.39 0.36 0.44 0.39 0.43 0.32 0.27 0.15 0.08 0.05 0.04 0.03 0.06 0.08 0.08 0.08 0.04 0.01 0.00 0.00 0.00 0.00 0.00 0.00 0.00 0.00 0.00 0.00 0.00 0.00 0.01 0.01 0.02 0.01 0.01 0.00
0.02 0.06 0.14 0.34 0.38 0.47 0.48 0.55 0.51 0.44 0.58 0.52 0.46 0.33 0.21 0.17 0.09 0.07 0.07 0.05 0.09 0.09 0.11 0.07 0.02 0.00 0.00 0.00 0.00 0.00 0.00 0.00 0.00 0.00 0.00 0.00 0.00 0.00 0.00 0.00 0.00 0.00 0.01
0.02 0.02 0.04 0.13 0.29 0.42 0.40 0.49 0.61 0.53 0.48 0.68 0.63 0.60 0.44 0.28 0.20 0.18 0.11 0.06 0.09 0.08 0.06 0.03 0.02 0.01 0.00 0.00 0.00 0.00 0.00 0.00 0.00 0.00 0.00 0.00 0.00 0.00 0.00 0.00 0.00 0.00 0.00
0.05 0.06 0.05 0.06 0.19 0.27 0.33 0.33 0.49 0.54 0.51 0.49 0.68 0.79 0.71 0.48 0.31 0.24 0.16 0.08 0.09 0.11 0.04 0.02 0.01 0.00 0.00 0.00 0.00 0.00 0.00 0.00 0.00 0.00 0.00 0.00 0.00 0.00 0.00 0.00 0.00 0.00 0.00
0.08 0.05 0.06 0.07 0.07 0.13 0.22 0.20 0.23 0.34 0.48 0.45 0.46 0.47 0.48 0.42 0.35 0.28 0.25 0.19 0.17 0.15 0.09 0.02 0.02 0.01 0.02 0.03 0.03 0.02 0.00 0.00 0.00 0.00 0.00 0.00 0.00 0.00 0.00 0.00 0.00 0.00 0.00
0.06 0.05 0.04 0.04 0.06 0.04 0.08 0.14 0.13 0.16 0.20 0.40 0.41 0.54 0.54 0.35 0.33 0.28 0.27 0.23 0.16 0.13 0.11 0.06 0.02 0.02 0.03 0.03 0.03 0.03 0.02 0.02 0.01 0.02 0.02 0.02 0.01 0.01 0.01 0.01 0.00 0.00 0.00
0.11 0.11 0.09 0.04 0.03 0.05 0.05 0.06 0.09 0.10 0.14 0.16 0.28 0.39 0.62 0.64 0.52 0.40 0.35 0.27 0.19 0.17 0.20 0.16 0.07 0.03 0.01 0.01 0.02 0.02 0.01 0.01 0.02 0.04 0.05 0.04 0.04 0.03 0.01 0.00 0.00 0.00 0.00
0.10 0.11 0.11 0.07 0.05 0.05 0.09 0.05 0.04 0.05 0.04 0.13 0.18 0.23 0.35 0.50 0.64 0.54 0.40 0.31 0.26 0.24 0.22 0.20 0.12 0.08 0.04 0.02 0.03 0.01 0.01 0.02 0.03 0.03 0.02 0.00 0.00 0.01 0.01 0.01 0.00 0.00 0.01
0.11 0.09 0.11 0.11 0.10 0.05 0.04 0.06 0.05 0.06 0.03 0.02 0.08 0.20 0.24 0.30 0.40 0.45 0.47 0.38 0.36 0.35 0.28 0.24 0.17 0.12 0.08 0.04 0.09 0.04 0.04 0.04 0.04 0.02 0.03 0.03 0.05 0.05 0.05 0.08 0.13 0.15 0.18
0.13 0.11 0.13 0.13 0.13 0.13 0.13 0.09 0.05 0.06 0.06 0.04 0.05 0.11 0.19 0.24 0.31 0.35 0.46 0.45 0.45 0.42 0.36 0.31 0.21 0.14 0.09 0.08 0.09 0.09 0.14 0.14 0.22 0.23 0.28 0.31 0.34 0.35 0.38 0.37 0.27 0.21 0.18
0.27 0.25 0.19 0.18 0.18 0.16 0.29 0.19 0.07 0.04 0.07 0.13 0.15 0.11 0.14 0.32 0.38 0.39 0.37 0.37 0.43 0.47 0.38 0.28 0.24 0.21 0.13 0.15 0.14 0.16 0.14 0.15 0.14 0.11 0.13 0.17 0.19 0.21 0.19 0.13 0.15 0.11 0.12
0.54 0.54 0.56 0.52 0.37 0.29 0.36 0.27 0.20 0.07 0.13 0.16 0.16 0.23 0.26 0.21 0.24 0.20 0.37 0.37 0.32 0.41 0.44 0.36 0.30 0.23 0.30 0.41 0.44 0.42 0.41 0.43 0.37 0.28 0.27 0.32 0.42 0.47 0.44 0.40 0.41 0.14 0.09
0.80 0.63 0.63 0.60 0.61 0.60 0.42 0.28 0.24 0.10 0.17 0.21 0.21 0.21 0.20 0.18 0.30 0.29 0.18 0.28 0.38 0.46 0.58 0.68 0.80 0.89 0.90 0.69 0.59 0.56 0.50 0.49 0.51 0.58 0.59 0.65 0.61 0.57 0.51 0.45 0.67 0.30 0.17
0.86 0.85 0.70 0.62 0.52 0.41 0.46 0.32 0.19 0.09 0.19 0.23 0.25 0.33 0.37 0.23 0.46 0.36 0.22 0.31 0.43 0.52 0.78 0.76 0.78 0.68 0.55 0.44 0.37 0.37 0.52 0.64 0.70 0.70 0.70 0.68 0.63 0.58 0.50 0.42 0.47 0.54 0.30
1.12 1.06 0.98 0.89 0.80 0.51 0.59 0.53 0.48 0.34 0.32 0.31 0.30 0.37 0.69 0.49 0.63 0.53 0.45 0.49 0.57 0.64 0.65 0.60 0.63 0.60 0.51 0.45 0.49 0.37 0.37 0.58 0.84 0.84 0.73 0.65 0.63 0.66 0.69 0.65 0.53 0.47 0.40

GFSMA_prec_precacc24_117.txt.gz
Total_Precipitation_Accumulation
0.07 0.09 0.13 0.23 0.24 0.19 0.27 0.29 0.20 0.24 0.27 0.33 0.28 0.21 0.04 0.16 0.16 0.27 0.26 0.40 0.48 0.44 0.28 0.06 0.03 0.03 0.03 0.03 0.02 0.02 0.01 0.02 0.02 0.02 0.01 0.02 0.02 0.01 0.01 0.01 0.01 0.01 0.00
0.07 0.09 0.15 0.21 0.19 0.21 0.32 0.40 0.17 0.26 0.28 0.25 0.27 0.15 0.06 0.15 0.19 0.31 0.27 0.51 0.67 0.72 0.69 0.29 0.06 0.04 0.03 0.03 0.02 0.02 0.02 0.02 0.02 0.02 0.02 0.02 0.02 0.01 0.01 0.01 0.01 0.00 0.00
0.07 0.13 0.16 0.20 0.16 0.21 0.22 0.37 0.36 0.35 0.31 0.28 0.23 0.16 0.09 0.12 0.12 0.22 0.20 0.30 0.42 0.45 0.57 0.57 0.24 0.06 0.03 0.04 0.02 0.02 0.02 0.03 0.04 0.03 0.03 0.01 0.01 0.01 0.01 0.01 0.01 0.00 0.00
0.07 0.18 0.18 0.19 0.23 0.20 0.16 0.29 0.20 0.28 0.34 0.28 0.21 0.13 0.10 0.05 0.06 0.14 0.18 0.20 0.30 0.31 0.38 0.31 0.16 0.08 0.05 0.05 0.02 0.02 0.03 0.03 0.04 0.04 0.02 0.02 0.01 0.01 0.01 0.01 0.00 0.00 0.00
0.06 0.18 0.26 0.28 0.24 0.26 0.17 0.17 0.10 0.13 0.24 0.29 0.24 0.19 0.11 0.05 0.04 0.11 0.16 0.18 0.22 0.27 0.22 0.19 0.09 0.04 0.03 0.06 0.04 0.03 0.03 0.03 0.04 0.04 0.02 0.02 0.01 0.01 0.01 0.01 0.00 0.00 0.00
0.12 0.28 0.39 0.36 0.25 0.23 0.27 0.19 0.12 0.16 0.18 0.19 0.25 0.26 0.16 0.09 0.06 0.15 0.20 0.20 0.21 0.24 0.25 0.13 0.07 0.04 0.03 0.04 0.05 0.03 0.03 0.03 0.02 0.03 0.02 0.02 0.01 0.02 0.02 0.01 0.00 0.00 0.00
0.20 0.38 0.50 0.43 0.36 0.24 0.17 0.14 0.12 0.13 0.23 0.23 0.33 0.38 0.23 0.16 0.08 0.13 0.20 0.18 0.18 0.17 0.21 0.20 0.05 0.01 0.02 0.02 0.04 0.03 0.03 0.04 0.03 0.02 0.03 0.02 0.02 0.02 0.02 0.01 0.00 0.00 0.00
0.25 0.34 0.52 0.47 0.38 0.35 0.34 0.24 0.10 0.08 0.16 0.24 0.19 0.24 0.26 0.40 0.16 0.08 0.14 0.15 0.12 0.12 0.12 0.12 0.06 0.01 0.01 0.01 0.01 0.02 0.02 0.04 0.04 0.02 0.02 0.03 0.01 0.01 0.02 0.01 0.01 0.00 0.00
0.22 0.14 0.36 0.48 0.40 0.42 0.47 0.37 0.18 0.09 0.09 0.22 0.16 0.09 0.10 0.16 0.10 0.04 0.06 0.09 0.10 0.07 0.07 0.06 0.07 0.02 0.00 0.00 0.00 0.00 0.01 0.02 0.04 0.04 0.03 0.02 0.01 0.01 0.01 0.01 0.01 0.01 0.00
0.09 0.11 0.13 0.35 0.32 0.39 0.41 0.47 0.41 0.33 0.22 0.22 0.19 0.08 0.05 0.02 0.04 0.08 0.08 0.08 0.11 0.10 0.05 0.04 0.05 0.02 0.00 0.00 0.00 0.00 0.00 0.00 0.01 0.02 0.03 0.03 0.02 0.01 0.01 0.01 0.01 0.00 0.00
0.01 0.08 0.14 0.26 0.32 0.36 0.36 0.33 0.47 0.45 0.43 0.29 0.19 0.11 0.07 0.05 0.05 0.05 0.11 0.13 0.14 0.09 0.07 0.04 0.04 0.03 0.01 0.00 0.00 0.00 0.00 0.00 0.00 0.00 0.01 0.02 0.02 0.02 0.01 0.00 0.00 0.00 0.00
0.03 0.09 0.15 0.26 0.34 0.38 0.44 0.37 0.36 0.44 0.39 0.44 0.33 0.27 0.16 0.09 0.06 0.05 0.04 0.07 0.09 0.09 0.09 0.06 0.04 0.01 0.00 0.00 0.00 0.00 0.00 0.00 0.00 0.00 0.00 0.00 0.01 0.01 0.02 0.02 0.01 0.01 0.00
0.01 0.06 0.10 0.20 0.27 0.40 0.45 0.52 0.50 0.44 0.58 0.52 0.47 0.34 0.22 0.18 0.10 0.08 0.11 0.13 0.16 0.14 0.15 0.10 0.05 0.01 0.00 0.00 0.00 0.00 0.00 0.00 0.00 0.00 0.00 0.00 0.00 0.00 0.00 0.00 0.01 0.01 0.02
0.02 0.02 0.03 0.09 0.24 0.41 0.40 0.48 0.62 0.53 0.49 0.69 0.63 0.61 0.45 0.28 0.21 0.20 0.20 0.22 0.26 0.15 0.08 0.04 0.04 0.03 0.01 0.00 0.00 0.00 0.00 0.00 0.00 0.00 0.00 0.00 0.00 0.00 0.00 0.00 0.00 0.00 0.00
0.11 0.11 0.09 0.06 0.16 0.25 0.33 0.33 0.50 0.55 0.52 0.51 0.69 0.80 0.71 0.48 0.32 0.26 0.21 0.19 0.23 0.24 0.08 0.02 0.02 0.02 0.01 0.01 0.00 0.00 0.00 0.00 0.00 0.00 0.00 0.00 0.00 0.00 0.00 0.00 0.00 0.00 0.00
0.18 0.19 0.16 0.10 0.08 0.16 0.24 0.20 0.23 0.34 0.49 0.47 0.46 0.47 0.48 0.43 0.37 0.31 0.30 0.26 0.28 0.29 0.20 0.04 0.04 0.03 0.04 0.03 0.03 0.01 0.00 0.00 0.00 0.00 0.00 0.00 0.00 0.00 0.00 0.00 0.00 0.00 0.00
0.17 0.14 0.18 0.15 0.14 0.09 0.10 0.16 0.14 0.17 0.21 0.40 0.41 0.54 0.54 0.36 0.33 0.27 0.26 0.24 0.21 0.22 0.22 0.11 0.05 0.06 0.07 0.04 0.04 0.03 0.03 0.03 0.01 0.02 0.02 0.02 0.01 0.01 0.01 0.01 0.00 0.00 0.00
0.14 0.17 0.17 0.14 0.11 0.10 0.10 0.09 0.11 0.11 0.15 0.17 0.28 0.39 0.62 0.64 0.52 0.40 0.35 0.28 0.22 0.21 0.25 0.20 0.14 0.11 0.05 0.03 0.03 0.03 0.02 0.02 0.03 0.04 0.05 0.04 0.04 0.03 0.01 0.00 0.00 0.00 0.00
0.12 0.13 0.14 0.09 0.07 0.09 0.13 0.09 0.07 0.06 0.05 0.13 0.18 0.23 0.36 0.51 0.65 0.56 0.42 0.35 0.28 0.25 0.25 0.26 0.20 0.16 0.12 0.06 0.05 0.02 0.01 0.03 0.04 0.03 0.02 0.00 0.00 0.01 0.01 0.01 0.00 0.00 0.01
0.14 0.13 0.15 0.15 0.13 0.09 0.09 0.11 0.09 0.08 0.05 0.04 0.08 0.20 0.24 0.31 0.40 0.46 0.49 0.43 0.42 0.39 0.33 0.33 0.29 0.21 0.14 0.08 0.13 0.06 0.06 0.05 0.05 0.03 0.04 0.04 0.05 0.05 0.05 0.08 0.13 0.15 0.18
0.16 0.16 0.16 0.17 0.17 0.20 0.23 0.20 0.16 0.16 0.11 0.05 0.06 0.11 0.19 0.24 0.32 0.36 0.47 0.49 0.49 0.46 0.42 0.40 0.35 0.29 0.17 0.12 0.12 0.12 0.21 0.18 0.25 0.25 0.30 0.32 0.35 0.35 0.39 0.37 0.27 0.21 0.17
0.27 0.26 0.20 0.19 0.21 0.18 0.41 0.34 0.27 0.24 0.22 0.20 0.15 0.11 0.14 0.32 0.39 0.42 0.40 0.41 0.47 0.52 0.45 0.35 0.33 0.32 0.21 0.21 0.18 0.23 0.25 0.25 0.18 0.13 0.15 0.19 0.21 0.24 0.22 0.15 0.17 0.12 0.11
0.50 0.50 0.53 0.51 0.37 0.28 0.45 0.38 0.38 0.26 0.30 0.30 0.21 0.24 0.26 0.21 0.26 0.21 0.43 0.47 0.41 0.48 0.51 0.45 0.39 0.30 0.37 0.48 0.55 0.55 0.53 0.51 0.42 0.30 0.30 0.39 0.47 0.53 0.49 0.44 0.42 0.15 0.07
0.78 0.62 0.62 0.61 0.64 0.66 0.60 0.53 0.63 0.51 0.51 0.40 0.27 0.23 0.22 0.19 0.32 0.31 0.18 0.29 0.41 0.53 0.65 0.76 0.90 0.96 0.94 0.76 0.70 0.66 0.61 0.65 0.66 0.69 0.66 0.74 0.66 0.60 0.53 0.45 0.58 0.25 0.13
0.86 0.85 0.71 0.64 0.57 0.48 0.55 0.53 0.51 0.40 0.46 0.47 0.37 0.35 0.33 0.21 0.47 0.39 0.23 0.31 0.46 0.57 0.89 0.87 0.79 0.74 0.66 0.57 0.54 0.58 0.75 0.83 0.80 0.72 0.69 0.68 0.63 0.55 0.49 0.39 0.40 0.44 0.22
1.13 1.07 0.99 0.90 0.83 0.56 0.65 0.67 0.70 0.57 0.57 0.53 0.47 0.41 0.60 0.47 0.68 0.57 0.46 0.47 0.55 0.66 0.63 0.60 0.59 0.55 0.51 0.47 0.52 0.40 0.44 0.59 0.72 0.76 0.66 0.58 0.56 0.55 0.57 0.51 0.39 0.32 0.25

GFSMA_prec_precacc24_120.txt.gz
Total_Precipitation_Accumulation
0.06 0.08 0.11 0.14 0.16 0.16 0.11 0.07 0.02 0.12 0.22 0.31 0.28 0.22 0.05 0.18 0.22 0.37 0.32 0.43 0.50 0.58 0.59 0.32 0.06 0.03 0.02 0.03 0.02 0.02 0.01 0.02 0.02 0.02 0.02 0.02 0.02 0.02 0.01 0.01 0.01 0.01 0.00
0.06 0.06 0.11 0.12 0.14 0.20 0.12 0.03 0.03 0.17 0.24 0.24 0.27 0.16 0.06 0.17 0.24 0.37 0.37 0.61 0.74 0.78 0.88 0.70 0.36 0.06 0.03 0.03 0.02 0.02 0.02 0.03 0.02 0.02 0.02 0.02 0.02 0.01 0.01 0.01 0.01 0.00 0.00
0.04 0.06 0.09 0.12 0.14 0.18 0.11 0.11 0.24 0.27 0.28 0.27 0.23 0.16 0.09 0.12 0.15 0.26 0.31 0.42 0.50 0.45 0.61 1.07 0.86 0.25 0.04 0.04 0.02 0.02 0.02 0.03 0.04 0.03 0.03 0.02 0.01 0.01 0.01 0.01 0.01 0.01 0.00
0.04 0.10 0.09 0.14 0.20 0.18 0.10 0.13 0.15 0.24 0.32 0.27 0.21 0.13 0.10 0.05 0.06 0.16 0.22 0.26 0.43 0.34 0.38 0.40 0.60 0.33 0.11 0.05 0.02 0.02 0.03 0.03 0.04 0.04 0.03 0.02 0.01 0.01 0.01 0.01 0.01 0.00 0.00
0.02 0.11 0.12 0.15 0.18 0.20 0.13 0.09 0.07 0.10 0.23 0.28 0.24 0.19 0.11 0.05 0.05 0.12 0.17 0.20 0.30 0.36 0.23 0.23 0.22 0.16 0.11 0.09 0.04 0.03 0.03 0.03 0.04 0.04 0.02 0.02 0.01 0.01 0.02 0.01 0.00 0.00 0.00
0.01 0.05 0.11 0.20 0.12 0.13 0.14 0.11 0.10 0.13 0.16 0.19 0.25 0.26 0.16 0.09 0.07 0.15 0.21 0.23 0.25 0.31 0.33 0.15 0.13 0.10 0.06 0.05 0.06 0.03 0.03 0.03 0.03 0.03 0.02 0.02 0.01 0.02 0.02 0.01 0.01 0.00 0.00
0.05 0.11 0.20 0.23 0.22 0.13 0.08 0.09 0.11 0.12 0.22 0.23 0.33 0.38 0.23 0.16 0.08 0.13 0.20 0.19 0.19 0.22 0.28 0.25 0.10 0.07 0.05 0.03 0.04 0.04 0.03 0.03 0.03 0.03 0.03 0.02 0.02 0.02 0.02 0.02 0.01 0.00 0.00
0.03 0.10 0.29 0.30 0.24 0.24 0.26 0.20 0.10 0.08 0.16 0.24 0.20 0.24 0.26 0.40 0.16 0.08 0.14 0.15 0.13 0.15 0.14 0.14 0.11 0.07 0.05 0.02 0.01 0.02 0.03 0.05 0.04 0.02 0.04 0.04 0.01 0.02 0.02 0.02 0.01 0.01 0.00
0.02 0.05 0.18 0.36 0.30 0.32 0.42 0.37 0.18 0.09 0.10 0.22 0.16 0.08 0.09 0.16 0.10 0.05 0.07 0.10 0.12 0.09 0.08 0.07 0.08 0.05 0.02 0.01 0.00 0.00 0.01 0.03 0.05 0.05 0.03 0.02 0.02 0.01 0.01 0.02 0.01 0.01 0.01
0.01 0.02 0.04 0.24 0.26 0.31 0.38 0.47 0.41 0.33 0.23 0.22 0.19 0.08 0.05 0.03 0.04 0.08 0.08 0.09 0.12 0.11 0.06 0.05 0.05 0.06 0.04 0.01 0.00 0.00 0.00 0.00 0.01 0.04 0.05 0.03 0.02 0.02 0.01 0.01 0.01 0.01 0.01
0.00 0.00 0.03 0.20 0.29 0.34 0.35 0.33 0.47 0.45 0.43 0.29 0.19 0.11 0.07 0.06 0.05 0.05 0.12 0.13 0.14 0.09 0.07 0.05 0.05 0.04 0.02 0.01 0.01 0.00 0.00 0.00 0.00 0.01 0.02 0.03 0.03 0.02 0.02 0.01 0.01 0.00 0.00
0.01 0.01 0.04 0.18 0.29 0.35 0.43 0.37 0.36 0.44 0.39 0.44 0.34 0.28 0.16 0.10 0.06 0.06 0.05 0.07 0.09 0.09 0.10 0.07 0.05 0.06 0.06 0.03 0.01 0.00 0.00 0.00 0.00 0.00 0.00 0.01 0.02 0.03 0.02 0.02 0.01 0.01 0.01
0.01 0.01 0.02 0.10 0.19 0.33 0.40 0.49 0.48 0.42 0.57 0.52 0.47 0.34 0.22 0.18 0.11 0.09 0.12 0.15 0.17 0.15 0.17 0.13 0.06 0.03 0.03 0.03 0.01 0.00 0.00 0.00 0.00 0.00 0.00 0.00 0.00 0.01 0.01 0.01 0.01 0.01 0.02
0.01 0.03 0.09 0.13 0.22 0.33 0.35 0.45 0.59 0.52 0.48 0.69 0.64 0.60 0.44 0.28 0.21 0.21 0.22 0.24 0.27 0.18 0.09 0.06 0.04 0.05 0.02 0.01 0.00 0.01 0.00 0.00 0.00 0.00 0.00 0.00 0.00 0.00 0.00 0.00 0.00 0.01 0.01
0.13 0.16 0.20 0.16 0.18 0.19 0.27 0.33 0.49 0.54 0.53 0.51 0.70 0.80 0.71 0.49 0.33 0.26 0.23 0.21 0.25 0.29 0.10 0.03 0.03 0.02 0.02 0.01 0.01 0.00 0.00 0.00 0.00 0.00 0.00 0.00 0.00 0.00 0.00 0.00 0.00 0.00 0.00
0.22 0.26 0.28 0.19 0.10 0.28 0.36 0.34 0.31 0.40 0.52 0.47 0.47 0.48 0.48 0.43 0.37 0.32 0.30 0.26 0.29 0.32 0.28 0.06 0.05 0.05 0.07 0.06 0.05 0.04 0.01 0.00 0.00 0.00 0.00 0.00 0.00 0.00 0.00 0.00 0.00 0.00 0.00
0.24 0.24 0.28 0.24 0.13 0.16 0.28 0.32 0.22 0.19 0.22 0.41 0.41 0.54 0.54 0.36 0.34 0.28 0.27 0.24 0.22 0.23 0.24 0.14 0.06 0.09 0.15 0.13 0.10 0.06 0.03 0.03 0.01 0.02 0.02 0.02 0.01 0.01 0.01 0.01 0.00 0.00 0.00
0.22 0.26 0.20 0.17 0.15 0.13 0.13 0.15 0.17 0.15 0.17 0.19 0.30 0.40 0.62 0.65 0.52 0.40 0.35 0.28 0.21 0.19 0.22 0.22 0.16 0.13 0.12 0.10 0.11 0.09 0.05 0.03 0.04 0.05 0.05 0.04 0.04 0.03 0.01 0.00 0.00 0.00 0.00
0.12 0.16 0.18 0.13 0.12 0.13 0.18 0.14 0.11 0.09 0.06 0.14 0.19 0.24 0.36 0.51 0.65 0.56 0.42 0.36 0.28 0.24 0.25 0.28 0.22 0.17 0.14 0.12 0.14 0.11 0.13 0.09 0.06 0.04 0.02 0.01 0.01 0.01 0.01 0.01 0.00 0.00 0.01
0.14 0.12 0.15 0.15 0.15 0.11 0.11 0.13 0.12 0.10 0.06 0.05 0.09 0.21 0.25 0.31 0.41 0.45 0.47 0.41 0.39 0.35 0.30 0.31 0.30 0.23 0.18 0.15 0.19 0.15 0.20 0.14 0.07 0.04 0.04 0.05 0.06 0.05 0.05 0.08 0.13 0.15 0.18
0.15 0.15 0.18 0.20 0.20 0.22 0.26 0.22 0.18 0.18 0.14 0.12 0.13 0.19 0.27 0.34 0.36 0.36 0.46 0.48 0.46 0.41 0.38 0.37 0.37 0.31 0.22 0.16 0.19 0.18 0.29 0.24 0.27 0.26 0.30 0.32 0.35 0.35 0.39 0.38 0.28 0.21 0.18
0.27 0.25 0.20 0.20 0.22 0.21 0.47 0.37 0.29 0.25 0.30 0.44 0.50 0.46 0.49 0.66 0.60 0.45 0.40 0.42 0.47 0.51 0.45 0.35 0.33 0.33 0.22 0.23 0.24 0.35 0.37 0.35 0.22 0.14 0.15 0.19 0.22 0.25 0.22 0.15 0.18 0.13 0.12
0.49 0.48 0.51 0.48 0.32 0.23 0.42 0.38 0.38 0.26 0.32 0.41 0.44 0.46 0.43 0.34 0.34 0.24 0.43 0.48 0.43 0.51 0.54 0.45 0.38 0.30 0.36 0.45 0.56 0.62 0.63 0.58 0.46 0.32 0.35 0.47 0.51 0.55 0.51 0.45 0.44 0.16 0.10
0.77 0.61 0.61 0.59 0.62 0.62 0.57 0.52 0.62 0.51 0.54 0.47 0.36 0.29 0.26 0.23 0.34 0.31 0.19 0.28 0.40 0.51 0.60 0.61 0.65 0.68 0.67 0.60 0.63 0.60 0.55 0.63 0.67 0.63 0.65 0.75 0.62 0.59 0.53 0.44 0.52 0.25 0.15
0.86 0.85 0.71 0.64 0.57 0.48 0.56 0.54 0.53 0.44 0.52 0.52 0.45 0.41 0.41 0.29 0.52 0.42 0.24 0.33 0.47 0.57 0.84 0.84 0.76 0.75 0.67 0.57 0.52 0.50 0.64 0.70 0.66 0.54 0.50 0.52 0.49 0.47 0.45 0.35 0.33 0.35 0.18
1.13 1.07 0.99 0.90 0.84 0.56 0.65 0.68 0.71 0.61 0.64 0.63 0.58 0.55 0.75 0.65 0.84 0.69 0.57 0.52 0.61 0.68 0.59 0.55 0.54 0.53 0.52 0.50 0.57 0.44 0.47 0.61 0.66 0.66 0.55 0.53 0.51 0.43 0.42 0.35 0.25 0.20 0.14

GFSMA_prec_precacc24_123.txt.gz
Total_Precipitation_Accumulation
0.04 0.05 0.07 0.07 0.08 0.11 0.07 0.04 0.01 0.02 0.02 0.08 0.18 0.19 0.07 0.21 0.24 0.44 0.42 0.46 0.50 0.63 0.62 0.42 0.23 0.11 0.03 0.03 0.02 0.02 0.02 0.02 0.02 0.02 0.02 0.02 0.02 0.02 0.01 0.01 0.01 0.01 0.00
0.03 0.04 0.06 0.06 0.07 0.14 0.10 0.04 0.02 0.04 0.04 0.08 0.20 0.15 0.06 0.19 0.25 0.40 0.46 0.64 0.73 0.79 0.95 0.80 0.53 0.23 0.04 0.03 0.02 0.02 0.02 0.03 0.03 0.02 0.02 0.02 0.02 0.01 0.01 0.01 0.01 0.00 0.00
0.00 0.01 0.04 0.05 0.08 0.13 0.10 0.11 0.17 0.07 0.05 0.12 0.21 0.16 0.10 0.13 0.16 0.28 0.36 0.50 0.52 0.45 0.62 1.11 0.98 0.50 0.12 0.04 0.02 0.02 0.03 0.04 0.04 0.03 0.03 0.02 0.02 0.01 0.01 0.01 0.01 0.01 0.01
0.00 0.01 0.02 0.06 0.14 0.14 0.07 0.13 0.11 0.08 0.11 0.19 0.19 0.13 0.10 0.05 0.06 0.17 0.26 0.32 0.50 0.37 0.37 0.40 0.64 0.45 0.20 0.07 0.02 0.02 0.03 0.04 0.05 0.05 0.03 0.03 0.02 0.01 0.01 0.01 0.01 0.01 0.00
0.00 0.01 0.03 0.07 0.14 0.17 0.12 0.09 0.04 0.03 0.09 0.20 0.23 0.19 0.11 0.05 0.05 0.12 0.18 0.25 0.39 0.45 0.31 0.24 0.22 0.18 0.14 0.12 0.05 0.02 0.03 0.03 0.05 0.05 0.02 0.02 0.02 0.02 0.02 0.01 0.01 0.00 0.00
0.00 0.02 0.02 0.07 0.09 0.09 0.12 0.10 0.07 0.05 0.07 0.16 0.25 0.26 0.16 0.09 0.07 0.15 0.21 0.25 0.30 0.39 0.46 0.24 0.13 0.10 0.06 0.05 0.08 0.04 0.03 0.03 0.03 0.04 0.02 0.02 0.02 0.02 0.02 0.02 0.01 0.00 0.00
0.01 0.03 0.02 0.01 0.04 0.04 0.02 0.05 0.09 0.07 0.12 0.17 0.32 0.38 0.23 0.16 0.08 0.14 0.20 0.19 0.20 0.26 0.34 0.37 0.16 0.09 0.06 0.04 0.05 0.07 0.04 0.04 0.02 0.03 0.04 0.03 0.02 0.03 0.03 0.02 0.01 0.00 0.00
0.01 0.03 0.02 0.00 0.04 0.10 0.08 0.06 0.05 0.03 0.10 0.19 0.19 0.24 0.25 0.39 0.16 0.08 0.14 0.15 0.13 0.16 0.16 0.18 0.19 0.10 0.06 0.03 0.02 0.04 0.05 0.05 0.04 0.02 0.04 0.04 0.02 0.02 0.02 0.02 0.02 0.01 0.00
0.01 0.01 0.00 0.03 0.13 0.18 0.29 0.23 0.13 0.06 0.07 0.18 0.14 0.08 0.09 0.15 0.09 0.04 0.07 0.10 0.13 0.12 0.11 0.11 0.11 0.08 0.04 0.02 0.01 0.00 0.02 0.03 0.06 0.05 0.03 0.03 0.02 0.01 0.02 0.02 0.02 0.01 0.01
0.00 0.00 0.00 0.04 0.11 0.16 0.22 0.35 0.36 0.31 0.21 0.22 0.18 0.08 0.05 0.03 0.04 0.08 0.08 0.09 0.12 0.11 0.08 0.08 0.09 0.10 0.05 0.01 0.00 0.00 0.00 0.00 0.02 0.05 0.05 0.03 0.02 0.02 0.02 0.01 0.01 0.01 0.01
0.00 0.00 0.00 0.01 0.09 0.16 0.18 0.24 0.44 0.42 0.42 0.28 0.19 0.10 0.07 0.05 0.04 0.05 0.12 0.14 0.14 0.10 0.08 0.08 0.08 0.08 0.05 0.03 0.01 0.01 0.01 0.00 0.00 0.01 0.03 0.04 0.03 0.02 0.01 0.01 0.01 0.01 0.01
0.01 0.00 0.01 0.02 0.09 0.16 0.27 0.31 0.34 0.42 0.38 0.42 0.33 0.27 0.16 0.09 0.06 0.05 0.05 0.07 0.10 0.10 0.10 0.08 0.08 0.08 0.09 0.06 0.02 0.00 0.00 0.00 0.00 0.00 0.00 0.01 0.03 0.04 0.03 0.02 0.01 0.01 0.01
0.02 0.01 0.01 0.02 0.06 0.17 0.29 0.45 0.46 0.40 0.55 0.51 0.47 0.33 0.22 0.17 0.11 0.09 0.12 0.15 0.18 0.16 0.18 0.13 0.07 0.06 0.05 0.05 0.03 0.01 0.00 0.00 0.00 0.00 0.00 0.00 0.00 0.01 0.02 0.01 0.02 0.02 0.02
0.02 0.04 0.09 0.11 0.12 0.19 0.25 0.38 0.52 0.46 0.44 0.67 0.63 0.60 0.44 0.28 0.21 0.22 0.22 0.25 0.29 0.19 0.10 0.06 0.05 0.05 0.03 0.01 0.01 0.03 0.02 0.01 0.00 0.00 0.00 0.00 0.00 0.00 0.00 0.00 0.01 0.01 0.01
0.15 0.18 0.22 0.17 0.15 0.23 0.28 0.33 0.44 0.50 0.49 0.49 0.72 0.85 0.75 0.49 0.34 0.26 0.23 0.24 0.29 0.31 0.11 0.03 0.03 0.02 0.02 0.02 0.01 0.01 0.00 0.00 0.00 0.00 0.00 0.00 0.00 0.00 0.00 0.00 0.00 0.00 0.00
0.24 0.29 0.31 0.24 0.14 0.31 0.43 0.36 0.40 0.51 0.62 0.52 0.52 0.57 0.55 0.46 0.39 0.33 0.29 0.26 0.31 0.33 0.28 0.06 0.06 0.05 0.08 0.08 0.06 0.05 0.01 0.02 0.02 0.01 0.00 0.00 0.00 0.00 0.00 0.00 0.00 0.00 0.00
0.27 0.27 0.33 0.29 0.16 0.18 0.33 0.33 0.30 0.31 0.33 0.54 0.52 0.61 0.58 0.38 0.35 0.28 0.27 0.26 0.23 0.26 0.26 0.14 0.07 0.09 0.15 0.14 0.13 0.11 0.07 0.06 0.03 0.03 0.03 0.02 0.01 0.01 0.01 0.01 0.00 0.00 0.00
0.25 0.29 0.23 0.20 0.17 0.15 0.17 0.18 0.20 0.22 0.21 0.19 0.33 0.49 0.70 0.70 0.56 0.41 0.36 0.28 0.23 0.21 0.23 0.22 0.16 0.13 0.12 0.11 0.15 0.16 0.15 0.14 0.11 0.11 0.06 0.04 0.04 0.03 0.01 0.00 0.00 0.00 0.00
0.12 0.16 0.20 0.16 0.16 0.15 0.19 0.16 0.13 0.12 0.11 0.18 0.21 0.25 0.39 0.55 0.69 0.58 0.44 0.36 0.28 0.25 0.26 0.29 0.23 0.17 0.14 0.12 0.16 0.16 0.19 0.21 0.19 0.14 0.06 0.02 0.01 0.01 0.01 0.01 0.00 0.00 0.01
0.13 0.12 0.14 0.14 0.15 0.12 0.12 0.14 0.12 0.12 0.10 0.10 0.14 0.24 0.28 0.36 0.46 0.49 0.50 0.42 0.39 0.35 0.28 0.29 0.29 0.23 0.16 0.14 0.18 0.18 0.26 0.28 0.20 0.12 0.10 0.10 0.10 0.08 0.07 0.09 0.13 0.15 0.18
0.15 0.14 0.17 0.18 0.17 0.20 0.25 0.21 0.18 0.18 0.16 0.15 0.16 0.23 0.33 0.46 0.54 0.55 0.64 0.62 0.55 0.47 0.35 0.31 0.33 0.29 0.20 0.15 0.18 0.18 0.30 0.29 0.34 0.33 0.39 0.42 0.42 0.37 0.39 0.38 0.28 0.21 0.18
0.26 0.25 0.19 0.20 0.21 0.21 0.48 0.37 0.30 0.27 0.33 0.48 0.55 0.53 0.58 0.79 0.78 0.75 0.67 0.63 0.64 0.64 0.48 0.32 0.30 0.31 0.22 0.21 0.22 0.34 0.41 0.40 0.29 0.19 0.22 0.30 0.30 0.29 0.25 0.18 0.19 0.16 0.16
0.49 0.47 0.50 0.47 0.30 0.22 0.41 0.38 0.39 0.27 0.33 0.44 0.48 0.48 0.45 0.38 0.37 0.29 0.48 0.51 0.46 0.52 0.52 0.41 0.36 0.27 0.26 0.28 0.39 0.50 0.55 0.48 0.36 0.30 0.39 0.55 0.51 0.49 0.44 0.38 0.36 0.15 0.10
0.74 0.58 0.58 0.56 0.60 0.58 0.53 0.50 0.61 0.50 0.51 0.43 0.34 0.29 0.26 0.24 0.33 0.30 0.21 0.30 0.39 0.44 0.50 0.47 0.42 0.45 0.41 0.42 0.48 0.47 0.45 0.54 0.57 0.51 0.53 0.63 0.53 0.57 0.48 0.36 0.42 0.21 0.15
0.74 0.78 0.67 0.61 0.55 0.47 0.54 0.53 0.51 0.43 0.48 0.46 0.41 0.39 0.42 0.33 0.60 0.48 0.28 0.38 0.53 0.58 0.79 0.82 0.77 0.80 0.73 0.62 0.55 0.51 0.64 0.68 0.58 0.42 0.36 0.39 0.40 0.39 0.39 0.34 0.32 0.33 0.17
0.97 0.94 0.89 0.83 0.79 0.55 0.63 0.67 0.71 0.62 0.65 0.64 0.59 0.57 0.81 0.72 0.96 0.84 0.72 0.74 0.80 0.82 0.71 0.64 0.58 0.53 0.51 0.52 0.61 0.47 0.50 0.65 0.66 0.64 0.53 0.52 0.53 0.47 0.50 0.40 0.25 0.20 0.15

GFSMA_prec_precacc24_126.txt.gz
Total_Precipitation_Accumulation
0.05 0.04 0.04 0.02 0.00 0.00 0.01 0.00 0.01 0.02 0.02 0.02 0.03 0.02 0.04 0.19 0.25 0.48 0.48 0.48 0.50 0.63 0.62 0.42 0.24 0.14 0.07 0.03 0.02 0.02 0.02 0.02 0.02 0.02 0.02 0.02 0.02 0.02 0.01 0.01 0.01 0.01 0.01
0.02 0.04 0.03 0.02 0.00 0.02 0.03 0.02 0.02 0.04 0.04 0.01 0.01 0.02 0.05 0.17 0.25 0.43 0.49 0.64 0.73 0.79 0.99 0.83 0.53 0.23 0.05 0.03 0.02 0.02 0.02 0.03 0.03 0.03 0.02 0.02 0.02 0.02 0.02 0.01 0.01 0.01 0.00
0.01 0.01 0.01 0.02 0.04 0.05 0.07 0.08 0.15 0.06 0.03 0.03 0.04 0.04 0.08 0.13 0.16 0.29 0.38 0.51 0.52 0.45 0.63 1.12 0.97 0.49 0.12 0.04 0.02 0.02 0.02 0.04 0.05 0.04 0.03 0.03 0.02 0.01 0.01 0.01 0.01 0.01 0.01
0.00 0.01 0.01 0.00 0.05 0.07 0.04 0.12 0.12 0.08 0.04 0.03 0.02 0.06 0.09 0.06 0.06 0.17 0.27 0.34 0.51 0.38 0.37 0.39 0.64 0.44 0.20 0.06 0.02 0.02 0.02 0.04 0.05 0.05 0.04 0.03 0.02 0.02 0.01 0.01 0.01 0.01 0.00
0.00 0.00 0.01 0.01 0.04 0.07 0.08 0.08 0.06 0.05 0.03 0.03 0.07 0.13 0.11 0.06 0.05 0.12 0.18 0.27 0.42 0.50 0.32 0.25 0.21 0.18 0.14 0.12 0.06 0.02 0.02 0.03 0.05 0.05 0.03 0.02 0.02 0.02 0.02 0.01 0.01 0.01 0.00
0.00 0.00 0.00 0.01 0.02 0.05 0.10 0.09 0.07 0.04 0.03 0.06 0.14 0.21 0.16 0.09 0.07 0.15 0.22 0.25 0.31 0.42 0.51 0.27 0.13 0.10 0.06 0.05 0.08 0.04 0.02 0.02 0.02 0.04 0.03 0.02 0.02 0.03 0.03 0.02 0.01 0.00 0.00
0.00 0.00 0.00 0.00 0.01 0.02 0.02 0.04 0.09 0.07 0.05 0.06 0.23 0.36 0.22 0.15 0.08 0.14 0.21 0.20 0.21 0.27 0.37 0.42 0.16 0.10 0.06 0.04 0.05 0.07 0.04 0.04 0.03 0.03 0.04 0.03 0.03 0.03 0.03 0.02 0.01 0.01 0.00
0.00 0.00 0.00 0.00 0.00 0.01 0.03 0.04 0.05 0.03 0.03 0.07 0.13 0.24 0.24 0.38 0.15 0.08 0.14 0.16 0.14 0.17 0.17 0.20 0.21 0.11 0.06 0.03 0.02 0.04 0.05 0.07 0.06 0.03 0.04 0.04 0.02 0.02 0.02 0.02 0.02 0.01 0.00
0.00 0.00 0.00 0.00 0.00 0.00 0.01 0.06 0.10 0.05 0.04 0.07 0.10 0.09 0.09 0.15 0.09 0.04 0.07 0.10 0.13 0.12 0.13 0.13 0.12 0.09 0.05 0.02 0.01 0.00 0.02 0.03 0.07 0.06 0.03 0.03 0.02 0.01 0.02 0.02 0.02 0.02 0.02
0.00 0.00 0.00 0.00 0.00 0.01 0.03 0.16 0.26 0.26 0.17 0.16 0.16 0.08 0.05 0.03 0.04 0.07 0.08 0.09 0.12 0.11 0.08 0.09 0.09 0.11 0.06 0.03 0.00 0.00 0.00 0.00 0.02 0.06 0.05 0.03 0.02 0.02 0.02 0.01 0.01 0.01 0.01
0.00 0.00 0.00 0.01 0.00 0.01 0.05 0.13 0.31 0.34 0.36 0.25 0.19 0.10 0.06 0.05 0.04 0.05 0.12 0.14 0.14 0.10 0.08 0.09 0.08 0.09 0.07 0.04 0.02 0.01 0.01 0.00 0.00 0.01 0.03 0.05 0.03 0.02 0.01 0.01 0.01 0.01 0.01
0.01 0.00 0.01 0.02 0.02 0.01 0.07 0.17 0.22 0.34 0.32 0.36 0.31 0.25 0.15 0.08 0.05 0.05 0.04 0.06 0.09 0.10 0.10 0.08 0.09 0.09 0.10 0.06 0.02 0.00 0.00 0.00 0.00 0.00 0.00 0.01 0.04 0.04 0.03 0.02 0.01 0.01 0.01
0.02 0.02 0.02 0.02 0.03 0.03 0.08 0.22 0.30 0.31 0.45 0.42 0.41 0.31 0.20 0.16 0.10 0.09 0.12 0.15 0.17 0.16 0.18 0.14 0.07 0.06 0.06 0.07 0.03 0.01 0.00 0.00 0.00 0.00 0.00 0.00 0.00 0.01 0.02 0.01 0.02 0.02 0.02
0.14 0.06 0.12 0.11 0.10 0.07 0.11 0.22 0.36 0.39 0.37 0.59 0.60 0.59 0.45 0.28 0.24 0.24 0.24 0.27 0.30 0.19 0.09 0.06 0.05 0.05 0.03 0.02 0.01 0.04 0.02 0.01 0.01 0.00 0.00 0.00 0.00 0.00 0.00 0.00 0.01 0.01 0.01
0.62 0.31 0.32 0.21 0.17 0.25 0.28 0.30 0.32 0.39 0.41 0.42 0.70 0.87 0.79 0.52 0.42 0.33 0.28 0.26 0.31 0.31 0.11 0.03 0.04 0.02 0.02 0.02 0.01 0.03 0.02 0.00 0.00 0.00 0.00 0.00 0.00 0.00 0.00 0.00 0.00 0.00 0.00
1.18 0.76 0.51 0.41 0.26 0.37 0.47 0.35 0.36 0.48 0.58 0.50 0.54 0.69 0.75 0.70 0.69 0.57 0.42 0.30 0.31 0.37 0.31 0.07 0.08 0.05 0.07 0.06 0.04 0.04 0.01 0.02 0.02 0.02 0.01 0.01 0.00 0.00 0.00 0.00 0.00 0.00 0.00
0.39 0.39 0.44 0.44 0.30 0.25 0.40 0.40 0.34 0.34 0.39 0.58 0.59 0.71 0.80 0.74 0.85 0.58 0.42 0.34 0.29 0.29 0.31 0.14 0.09 0.10 0.15 0.14 0.13 0.11 0.08 0.06 0.03 0.05 0.05 0.05 0.03 0.01 0.01 0.01 0.00 0.00 0.00
0.53 0.42 0.32 0.28 0.23 0.17 0.20 0.23 0.24 0.25 0.24 0.25 0.37 0.55 0.79 0.77 0.59 0.43 0.39 0.31 0.24 0.23 0.29 0.25 0.18 0.14 0.12 0.11 0.15 0.16 0.15 0.14 0.12 0.14 0.10 0.08 0.07 0.05 0.02 0.00 0.00 0.00 0.00
0.29 0.27 0.30 0.24 0.19 0.20 0.24 0.20 0.16 0.15 0.16 0.23 0.25 0.29 0.43 0.58 0.69 0.59 0.47 0.40 0.32 0.29 0.31 0.35 0.25 0.17 0.14 0.12 0.16 0.16 0.19 0.21 0.21 0.20 0.11 0.09 0.10 0.08 0.05 0.02 0.00 0.00 0.01
0.20 0.17 0.16 0.19 0.21 0.17 0.17 0.17 0.16 0.15 0.13 0.14 0.16 0.27 0.31 0.40 0.49 0.54 0.55 0.48 0.45 0.41 0.34 0.35 0.35 0.26 0.18 0.15 0.17 0.18 0.26 0.29 0.22 0.14 0.14 0.13 0.12 0.12 0.11 0.11 0.14 0.15 0.18
0.18 0.16 0.18 0.17 0.18 0.22 0.28 0.24 0.20 0.20 0.17 0.17 0.19 0.27 0.40 0.55 0.63 0.62 0.71 0.69 0.63 0.58 0.53 0.49 0.45 0.37 0.22 0.13 0.15 0.14 0.25 0.26 0.32 0.29 0.35 0.43 0.45 0.41 0.43 0.39 0.28 0.20 0.17
0.27 0.25 0.19 0.20 0.21 0.20 0.47 0.37 0.30 0.27 0.33 0.47 0.53 0.52 0.62 0.87 0.84 0.86 0.82 0.81 0.83 0.84 0.68 0.41 0.32 0.29 0.20 0.18 0.19 0.30 0.38 0.41 0.28 0.17 0.20 0.30 0.33 0.31 0.23 0.18 0.24 0.21 0.18
0.48 0.46 0.49 0.46 0.30 0.21 0.38 0.37 0.37 0.26 0.30 0.39 0.46 0.47 0.45 0.40 0.42 0.30 0.52 0.55 0.50 0.53 0.51 0.39 0.36 0.26 0.24 0.23 0.30 0.39 0.42 0.34 0.23 0.19 0.34 0.57 0.55 0.50 0.43 0.35 0.38 0.21 0.18
0.74 0.57 0.57 0.55 0.59 0.57 0.52 0.50 0.60 0.50 0.51 0.42 0.33 0.30 0.29 0.28 0.38 0.35 0.25 0.33 0.41 0.43 0.47 0.44 0.34 0.30 0.27 0.30 0.40 0.39 0.39 0.54 0.57 0.47 0.48 0.62 0.55 0.58 0.49 0.38 0.48 0.24 0.18
0.70 0.76 0.65 0.60 0.53 0.45 0.51 0.51 0.50 0.42 0.46 0.43 0.36 0.33 0.36 0.29 0.53 0.46 0.25 0.34 0.49 0.53 0.75 0.83 0.79 0.82 0.76 0.64 0.57 0.55 0.70 0.76 0.63 0.45 0.37 0.39 0.40 0.42 0.42 0.39 0.37 0.40 0.22
0.68 0.73 0.71 0.68 0.67 0.49 0.54 0.58 0.60 0.50 0.50 0.49 0.44 0.45 0.67 0.56 0.77 0.67 0.57 0.62 0.76 0.83 0.76 0.72 0.69 0.63 0.60 0.58 0.70 0.58 0.65 0.80 0.77 0.71 0.57 0.55 0.56 0.52 0.56 0.44 0.28 0.24 0.18

GFSMA_prec_precacc24_132.txt.gz
Total_Precipitation_Accumulation
0.05 0.04 0.04 0.02 0.00 0.00 0.01 0.00 0.01 0.02 0.01 0.03 0.04 0.01 0.03 0.08 0.19 0.41 0.47 0.46 0.51 0.67 0.67 0.47 0.25 0.16 0.07 0.02 0.03 0.02 0.02 0.02 0.02 0.02 0.02 0.02 0.03 0.03 0.01 0.03 0.03 0.02 0.01
0.02 0.04 0.03 0.02 0.00 0.01 0.00 0.01 0.02 0.00 0.01 0.01 0.03 0.05 0.01 0.05 0.17 0.37 0.47 0.64 0.73 0.79 1.01 0.88 0.52 0.22 0.05 0.03 0.02 0.01 0.02 0.03 0.03 0.03 0.02 0.03 0.03 0.02 0.02 0.02 0.02 0.01 0.01
0.01 0.01 0.01 0.02 0.01 0.01 0.01 0.02 0.04 0.01 0.01 0.01 0.02 0.06 0.02 0.02 0.09 0.23 0.37 0.51 0.52 0.45 0.63 1.14 0.96 0.48 0.11 0.03 0.04 0.02 0.03 0.03 0.04 0.03 0.03 0.03 0.02 0.02 0.02 0.02 0.01 0.01 0.01
0.01 0.01 0.01 0.00 0.01 0.01 0.01 0.02 0.03 0.03 0.02 0.02 0.02 0.02 0.01 0.00 0.02 0.12 0.25 0.34 0.51 0.38 0.37 0.39 0.65 0.45 0.19 0.07 0.03 0.03 0.03 0.05 0.05 0.05 0.03 0.02 0.02 0.02 0.02 0.02 0.01 0.01 0.01
0.04 0.01 0.01 0.00 0.02 0.02 0.01 0.02 0.03 0.04 0.02 0.02 0.05 0.07 0.05 0.01 0.02 0.06 0.16 0.28 0.43 0.50 0.32 0.24 0.20 0.17 0.14 0.12 0.10 0.07 0.06 0.04 0.05 0.05 0.03 0.02 0.02 0.02 0.02 0.02 0.01 0.01 0.01
0.24 0.08 0.01 0.01 0.02 0.03 0.02 0.01 0.02 0.02 0.01 0.03 0.06 0.06 0.06 0.03 0.03 0.06 0.17 0.25 0.31 0.43 0.51 0.27 0.12 0.09 0.05 0.05 0.08 0.08 0.06 0.03 0.02 0.03 0.03 0.02 0.02 0.03 0.03 0.02 0.01 0.01 0.01
0.37 0.22 0.05 0.02 0.02 0.02 0.01 0.01 0.02 0.03 0.03 0.05 0.11 0.10 0.06 0.04 0.04 0.07 0.19 0.20 0.21 0.27 0.37 0.42 0.16 0.09 0.06 0.03 0.04 0.08 0.05 0.05 0.03 0.03 0.04 0.03 0.02 0.03 0.03 0.02 0.02 0.01 0.01
0.36 0.31 0.14 0.04 0.01 0.01 0.01 0.01 0.02 0.02 0.04 0.06 0.09 0.10 0.12 0.17 0.08 0.06 0.12 0.16 0.14 0.18 0.17 0.20 0.21 0.11 0.06 0.03 0.02 0.04 0.07 0.11 0.10 0.05 0.05 0.05 0.02 0.02 0.02 0.03 0.02 0.02 0.01
0.29 0.28 0.26 0.11 0.05 0.02 0.01 0.01 0.01 0.02 0.03 0.04 0.05 0.05 0.05 0.06 0.05 0.03 0.05 0.10 0.13 0.12 0.13 0.13 0.12 0.09 0.05 0.02 0.01 0.00 0.02 0.03 0.09 0.13 0.07 0.04 0.03 0.03 0.03 0.02 0.02 0.02 0.02
0.29 0.27 0.22 0.17 0.07 0.02 0.01 0.01 0.02 0.03 0.04 0.04 0.05 0.04 0.05 0.02 0.02 0.05 0.04 0.07 0.12 0.11 0.08 0.09 0.09 0.11 0.06 0.03 0.00 0.00 0.00 0.00 0.02 0.07 0.13 0.10 0.05 0.02 0.02 0.02 0.02 0.01 0.02
0.28 0.32 0.38 0.20 0.09 0.05 0.02 0.01 0.01 0.05 0.05 0.04 0.03 0.03 0.05 0.05 0.04 0.03 0.08 0.12 0.14 0.10 0.08 0.09 0.08 0.09 0.07 0.05 0.02 0.01 0.01 0.00 0.00 0.01 0.04 0.11 0.10 0.04 0.01 0.01 0.01 0.01 0.01
0.26 0.37 0.49 0.65 0.31 0.06 0.02 0.01 0.01 0.04 0.05 0.06 0.07 0.11 0.11 0.07 0.04 0.06 0.05 0.07 0.09 0.10 0.10 0.08 0.09 0.09 0.10 0.06 0.02 0.00 0.00 0.00 0.00 0.00 0.00 0.02 0.06 0.06 0.03 0.02 0.01 0.01 0.01
0.35 0.33 0.51 0.80 0.51 0.15 0.04 0.04 0.04 0.04 0.06 0.07 0.11 0.16 0.17 0.13 0.07 0.07 0.11 0.16 0.17 0.16 0.18 0.14 0.07 0.06 0.06 0.07 0.03 0.01 0.00 0.00 0.00 0.00 0.00 0.00 0.00 0.02 0.02 0.01 0.02 0.02 0.02
0.71 0.62 0.71 0.73 0.78 0.41 0.12 0.09 0.08 0.08 0.08 0.16 0.27 0.32 0.31 0.20 0.20 0.25 0.26 0.31 0.31 0.20 0.10 0.07 0.06 0.06 0.04 0.03 0.01 0.04 0.02 0.01 0.01 0.00 0.00 0.00 0.00 0.00 0.00 0.00 0.01 0.01 0.01
1.72 1.40 1.27 0.96 0.74 0.69 0.39 0.31 0.16 0.16 0.16 0.17 0.40 0.59 0.54 0.41 0.37 0.32 0.37 0.42 0.43 0.40 0.20 0.15 0.12 0.08 0.08 0.05 0.02 0.03 0.02 0.00 0.01 0.00 0.00 0.00 0.00 0.00 0.00 0.01 0.01 0.00 0.00
2.91 2.43 1.94 1.62 1.39 1.32 0.90 0.44 0.35 0.32 0.30 0.23 0.32 0.50 0.58 0.60 0.67 0.76 0.79 0.76 0.83 0.95 0.83 0.32 0.29 0.21 0.19 0.13 0.08 0.08 0.04 0.03 0.02 0.02 0.01 0.01 0.01 0.01 0.01 0.01 0.01 0.02 0.01
1.71 2.50 2.71 2.23 1.99 1.43 1.03 0.76 0.53 0.37 0.30 0.30 0.34 0.51 0.61 0.66 0.83 0.79 0.78 0.86 0.78 0.70 0.62 0.29 0.27 0.28 0.26 0.23 0.18 0.18 0.13 0.09 0.04 0.04 0.04 0.04 0.03 0.02 0.02 0.01 0.00 0.01 0.01
1.38 1.49 1.95 2.38 1.96 1.74 1.11 0.68 0.55 0.51 0.51 0.46 0.36 0.53 0.75 0.73 0.63 0.53 0.55 0.52 0.56 0.50 0.39 0.29 0.23 0.23 0.21 0.18 0.19 0.19 0.17 0.16 0.13 0.13 0.10 0.08 0.07 0.07 0.05 0.05 0.04 0.03 0.02
0.62 0.89 1.22 1.45 1.53 1.83 1.57 0.88 0.59 0.43 0.45 0.56 0.53 0.47 0.51 0.68 0.83 0.68 0.58 0.51 0.48 0.46 0.41 0.41 0.27 0.21 0.16 0.13 0.16 0.17 0.21 0.24 0.23 0.21 0.11 0.10 0.11 0.11 0.11 0.11 0.11 0.10 0.10
0.61 0.56 0.67 0.98 1.21 1.05 1.07 1.09 1.09 0.81 0.38 0.34 0.47 0.66 0.52 0.43 0.56 0.60 0.64 0.55 0.52 0.51 0.45 0.45 0.43 0.33 0.22 0.17 0.22 0.25 0.32 0.33 0.24 0.15 0.15 0.12 0.09 0.10 0.12 0.13 0.14 0.14 0.15
0.47 0.54 0.58 0.62 0.78 1.01 0.97 0.82 0.82 0.76 0.49 0.39 0.35 0.37 0.51 0.58 0.58 0.55 0.68 0.68 0.64 0.61 0.61 0.60 0.58 0.49 0.32 0.18 0.17 0.17 0.28 0.26 0.28 0.22 0.21 0.23 0.22 0.18 0.15 0.19 0.18 0.19 0.20
0.37 0.41 0.42 0.48 0.50 0.51 0.86 0.86 0.76 0.69 0.66 0.69 0.66 0.58 0.62 0.80 0.78 0.86 0.86 0.87 0.87 0.85 0.77 0.64 0.53 0.50 0.38 0.34 0.33 0.40 0.44 0.46 0.30 0.16 0.17 0.26 0.30 0.28 0.21 0.17 0.24 0.21 0.19
0.54 0.52 0.59 0.55 0.39 0.33 0.47 0.48 0.53 0.42 0.41 0.47 0.48 0.46 0.40 0.34 0.36 0.29 0.52 0.56 0.51 0.57 0.56 0.45 0.45 0.38 0.34 0.34 0.38 0.43 0.45 0.35 0.21 0.15 0.29 0.49 0.45 0.41 0.36 0.36 0.43 0.25 0.22
0.67 0.49 0.48 0.49 0.52 0.50 0.45 0.43 0.49 0.45 0.42 0.36 0.29 0.24 0.24 0.22 0.30 0.28 0.22 0.31 0.40 0.46 0.51 0.47 0.37 0.32 0.29 0.31 0.37 0.35 0.35 0.48 0.48 0.39 0.40 0.50 0.43 0.49 0.48 0.43 0.60 0.32 0.25
0.51 0.68 0.59 0.52 0.48 0.41 0.41 0.40 0.42 0.37 0.39 0.36 0.32 0.29 0.30 0.24 0.44 0.38 0.20 0.26 0.39 0.42 0.61 0.71 0.68 0.71 0.65 0.54 0.47 0.47 0.66 0.75 0.60 0.41 0.38 0.42 0.42 0.44 0.45 0.44 0.46 0.55 0.35
0.24 0.38 0.53 0.57 0.54 0.41 0.43 0.48 0.49 0.42 0.41 0.40 0.37 0.35 0.52 0.43 0.55 0.45 0.35 0.37 0.45 0.53 0.50 0.48 0.48 0.48 0.47 0.50 0.67 0.57 0.65 0.85 0.86 0.80 0.68 0.70 0.66 0.59 0.63 0.50 0.33 0.30 0.24